Weather reports worldwide

Advertisment
K13 Alpha, Netherlands (6252): temperature & dewpoint: 09.08.2020 22:00:00 - 15.08.2020 22:00:00 (CEST)K13 Alpha, Netherlands (6252): water temperature: 09.08.2020 22:00:00 - 15.08.2020 22:00:00 (CEST)K13 Alpha, Netherlands (6252): wind speed & gusts: 09.08.2020 22:00:00 - 15.08.2020 22:00:00 (CEST)K13 Alpha, Netherlands (6252): wind direction: 09.08.2020 22:00:00 - 15.08.2020 22:00:00 (CEST)K13 Alpha, Netherlands (6252): reduced air pressure: 09.08.2020 22:00:00 - 15.08.2020 22:00:00 (CEST)
Date & Time tt [°C] td [°C] tw [°C] ff [km/h] ff [kn] fx [km/h] fx [kn] dd ppp [hPa]
15.08.2020 22:00:00 19,0 18,2 18,8 0 0 0 0 N 1015,5
15.08.2020 21:00:00 19,0 18,1 18,8 0 0 0 0 N 1015,3
15.08.2020 20:00:00 19,0 18,1 18,8 0 0 0 0 N 1015,1
15.08.2020 19:00:00 19,1 18,2 18,8 0 0 0 0 N 1015,1
15.08.2020 18:00:00 19,1 18,2 18,8 0 0 0 0 N 1015,3
15.08.2020 17:00:00 19,2 18,3 18,8 0 0 0 0 N 1015,5
15.08.2020 16:00:00 19,1 18,3 18,8 0 0 0 0 N 1015,7
15.08.2020 15:00:00 19,1 18,2 18,7 0 0 0 0 N 1016,0
15.08.2020 14:00:00 19,1 18,3 18,7 0 0 0 0 N 1016,3
15.08.2020 13:00:00 19,0 18,2 18,7 0 0 0 0 N 1016,0
15.08.2020 12:00:00 19,0 18,1 18,6 0 0 0 0 N 1015,9
15.08.2020 11:00:00 18,8 17,8 18,6 0 0 0 0 N 1015,9
15.08.2020 10:00:00 18,8 17,8 18,6 0 0 0 0 N 1015,8
15.08.2020 09:00:00 18,8 17,7 18,6 0 0 0 0 N 1015,6
15.08.2020 08:00:00 18,7 18,0 18,7 0 0 0 0 N 1015,1
15.08.2020 07:00:00 19,0 18,1 18,7 0 0 0 0 N 1014,9
15.08.2020 06:00:00 19,0 17,9 18,7 0 0 0 0 N 1014,6
15.08.2020 05:00:00 19,1 17,8 18,7 0 0 0 0 N 1014,7
15.08.2020 04:00:00 19,2 17,6 18,7 0 0 0 0 N 1015,0
15.08.2020 03:00:00 19,1 17,6 18,6 0 0 0 0 N 1015,3
15.08.2020 02:00:00 19,1 17,5 18,7 0 0 0 0 N 1015,3
15.08.2020 01:00:00 19,1 17,8 18,7 0 0 0 0 N 1015,4
15.08.2020 00:00:00 19,2 18,4 18,7 0 0 0 0 N 1015,2
14.08.2020 23:00:00 19,2 18,4 18,7 0 0 0 0 N 1015,0
14.08.2020 22:00:00 19,3 18,5 18,8 0 0 0 0 N 1014,8
14.08.2020 21:00:00 19,4 18,5 19,1 0 0 0 0 N 1014,3
14.08.2020 20:00:00 19,5 18,6 19,2 0 0 0 0 N 1014,1
14.08.2020 19:00:00 19,6 18,7 19,3 0 0 0 0 N 1013,8
14.08.2020 18:00:00 19,7 18,8 19,2 0 0 0 0 N 1013,7
14.08.2020 17:00:00 19,8 18,4 19,3 0 0 0 0 N 1013,5
14.08.2020 16:00:00 19,7 18,2 19,2 0 0 0 0 N 1013,7
14.08.2020 15:00:00 19,7 18,3 19,1 0 0 0 0 N 1013,7
14.08.2020 14:00:00 19,3 18,3 19,0 0 0 0 0 N 1013,5
14.08.2020 13:00:00 19,1 18,1 18,8 0 0 0 0 N 1013,1
14.08.2020 12:00:00 19,8 18,8 18,8 0 0 0 0 N 1013,1
14.08.2020 11:00:00 20,0 18,6 18,8 0 0 0 0 N 1012,9
14.08.2020 10:00:00 19,9 18,6 19,0 0 0 0 0 N 1013,2
14.08.2020 09:00:00 20,6 18,7 18,8 0 0 0 0 N 1012,4
14.08.2020 08:00:00 20,4 19,2 18,8 0 0 0 0 N 1012,1
14.08.2020 07:00:00 19,9 18,4 18,9 0 0 0 0 N 1011,5
14.08.2020 06:00:00 20,0 18,4 19,0 0 0 29 16 N 1011,1
14.08.2020 05:00:00 20,1 18,3 19,0 0 0 0 0 N 1011,3
14.08.2020 04:00:00 20,3 18,2 18,9 0 0 0 0 N 1011,6
14.08.2020 03:00:00 20,5 18,1 19,0 0 0 0 0 N 1011,7
14.08.2020 02:00:00 20,5 18,2 19,1 0 0 0 0 N 1012,1
14.08.2020 01:00:00 20,6 18,3 19,1 0 0 0 0 N 1012,3
14.08.2020 00:00:00 20,8 18,4 19,3 0 0 0 0 N 1012,6
13.08.2020 23:00:00 20,6 18,5 19,5 0 0 0 0 N 1012,5
13.08.2020 22:00:00 20,7 18,5 19,6 0 0 0 0 N 1012,3
13.08.2020 21:00:00 20,6 18,3 19,6 0 0 0 0 N 1012,2
13.08.2020 20:00:00 20,6 18,5 19,6 0 0 0 0 N 1012,2
13.08.2020 19:00:00 20,6 18,7 19,6 0 0 0 0 N 1012,3
13.08.2020 18:00:00 20,7 18,5 19,7 0 0 0 0 N 1012,2
13.08.2020 17:00:00 20,7 18,7 19,8 0 0 0 0 N 1012,6
13.08.2020 16:00:00 20,7 18,7 19,5 0 0 0 0 N 1013,1
13.08.2020 15:00:00 20,4 18,7 19,5 0 0 0 0 N 1013,1
13.08.2020 14:00:00 21,4 18,6 19,2 0 0 0 0 N 1012,7
13.08.2020 13:00:00 20,5 18,7 19,0 0 0 0 0 N 1012,8
13.08.2020 12:00:00 20,6 18,8 18,9 0 0 0 0 N 1012,8
13.08.2020 11:00:00 20,5 18,7 18,8 0 0 0 0 N 1012,9
13.08.2020 10:00:00 20,7 18,3 18,7 0 0 0 0 N 1012,9
13.08.2020 09:00:00 21,7 18,8 18,7 0 0 0 0 N 1012,8
13.08.2020 08:00:00 21,9 18,8 18,5 0 0 0 0 N 1012,5
13.08.2020 07:00:00 21,7 19,0 18,6 0 0 0 0 N 1012,2
13.08.2020 06:00:00 20,6 19,0 18,8 0 0 0 0 N 1012,2
13.08.2020 05:00:00 20,1 18,7 18,6 0 0 0 0 N 1012,4
13.08.2020 04:00:00 20,3 18,7 18,5 0 0 0 0 N 1012,5
13.08.2020 03:00:00 20,2 18,7 18,8 0 0 0 0 N 1012,8
13.08.2020 02:00:00 20,3 18,8 18,7 0 0 0 0 N 1013,1
13.08.2020 01:00:00 20,4 19,0 19,1 0 0 0 0 N 1013,6
13.08.2020 00:00:00 20,5 19,0 19,2 0 0 0 0 N 1014,3
12.08.2020 23:00:00 20,7 19,0 19,4 0 0 0 0 N 1014,3
12.08.2020 22:00:00 20,6 19,1 19,4 0 0 0 0 N 1014,4
12.08.2020 21:00:00 21,1 19,2 19,4 0 0 0 0 N 1014,0
12.08.2020 20:00:00 21,4 19,1 19,9 0 0 0 0 N 1013,8
12.08.2020 19:00:00 21,5 19,3 20,1 0 0 0 0 N 1014,2
12.08.2020 18:00:00 21,6 19,8 20,3 0 0 0 0 N 1014,7
12.08.2020 17:00:00 21,6 19,5 20,1 0 0 0 0 N 1015,0
12.08.2020 16:00:00 21,9 18,8 19,8 0 0 0 0 N 1015,3
12.08.2020 15:00:00 21,2 19,5 19,6 0 0 0 0 N 1015,6
12.08.2020 14:00:00 23,1 19,2 20,2 0 0 0 0 N 1015,6
12.08.2020 13:00:00 21,9 19,3 19,9 0 0 0 0 N 1015,7
12.08.2020 12:00:00 21,9 18,9 19,1 0 0 0 0 N 1016,0
12.08.2020 11:00:00 21,8 18,5 18,8 0 0 0 0 N 1015,6
12.08.2020 10:00:00 21,6 18,6 18,5 0 0 0 0 N 1015,6
12.08.2020 09:00:00 20,3 18,3 18,4 0 0 0 0 N 1015,4
12.08.2020 08:00:00 20,7 18,6 18,4 0 0 0 0 N 1015,0
12.08.2020 07:00:00 25,1 15,0 18,4 0 0 54 29 N 1014,1
12.08.2020 06:00:00 20,1 18,6 18,4 0 0 0 0 N 1014,7
12.08.2020 05:00:00 21,1 18,8 18,4 0 0 0 0 N 1014,7
12.08.2020 04:00:00 20,6 18,7 18,4 0 0 0 0 N 1015,0
12.08.2020 03:00:00 21,1 19,4 18,4 0 0 0 0 N 1014,9
12.08.2020 02:00:00 22,1 19,9 18,4 0 0 0 0 N 1014,9
12.08.2020 01:00:00 22,8 20,6 18,5 0 0 0 0 N 1015,2
12.08.2020 00:00:00 22,0 19,8 18,4 0 0 0 0 N 1015,5
11.08.2020 23:00:00 21,2 19,4 18,6 0 0 0 0 N 1015,6
11.08.2020 22:00:00 20,6 19,0 18,7 0 0 0 0 N 1015,3
11.08.2020 21:00:00 20,4 19,0 18,7 0 0 0 0 N 1015,1
11.08.2020 20:00:00 20,1 18,9 18,7 0 0 0 0 N 1015,0
11.08.2020 19:00:00 20,0 18,7 18,7 0 0 0 0 N 1014,8
11.08.2020 18:00:00 20,0 18,6 18,7 0 0 0 0 N 1015,3
11.08.2020 17:00:00 20,2 18,6 18,8 0 0 0 0 N 1015,9
11.08.2020 16:00:00 19,8 18,4 18,7 0 0 0 0 N 1016,1
11.08.2020 15:00:00 19,8 18,2 18,7 0 0 0 0 N 1016,5
11.08.2020 14:00:00 19,8 18,1 18,6 0 0 0 0 N 1016,7
11.08.2020 13:00:00 19,9 18,1 18,6 0 0 0 0 N 1016,8
11.08.2020 12:00:00 20,1 18,0 18,4 0 0 0 0 N 1017,0
11.08.2020 11:00:00 20,2 18,0 18,3 0 0 32 18 N 1017,1
11.08.2020 10:00:00 20,3 18,0 18,3 35 19 36 19 E 1017,0
11.08.2020 09:00:00 20,4 18,1 18,3 31 17 32 18 E 1016,7
11.08.2020 08:00:00 20,5 18,0 18,2 29 16 36 19 ESE 1016,6
11.08.2020 07:00:00 20,5 18,2 18,2 34 18 36 19 ESE 1016,5
11.08.2020 06:00:00 20,4 18,2 18,2 31 17 32 18 ESE 1016,1
11.08.2020 05:00:00 20,7 18,5 18,2 31 17 36 19 ESE 1016,2
11.08.2020 04:00:00 20,6 18,7 18,2 4 2 36 19 ESE 1016,0
11.08.2020 03:00:00 20,2 18,5 18,3 0 0 0 0 N 1016,2
11.08.2020 02:00:00 19,9 18,1 18,3 0 0 0 0 N 1016,4
11.08.2020 01:00:00 20,1 18,0 18,3 0 0 0 0 N 1016,6
11.08.2020 00:00:00 19,8 18,0 18,2 0 0 0 0 N 1016,8
10.08.2020 23:00:00 20,0 18,1 18,3 0 0 0 0 N 1016,7
10.08.2020 22:00:00 20,3 18,2 18,5 0 0 0 0 N 1016,4
10.08.2020 21:00:00 19,9 18,2 18,5 0 0 0 0 N 1016,3
10.08.2020 20:00:00 19,9 18,2 18,7 0 0 0 0 N 1015,9
10.08.2020 19:00:00 19,7 18,4 18,7 0 0 0 0 N 1015,7
10.08.2020 18:00:00 19,7 18,4 18,7 0 0 0 0 N 1016,2
10.08.2020 17:00:00 19,5 18,4 18,6 0 0 0 0 N 1016,4
10.08.2020 16:00:00 19,3 18,3 18,6 0 0 0 0 N 1016,6
10.08.2020 15:00:00 19,4 18,1 18,6 0 0 0 0 N 1016,8
10.08.2020 14:00:00 19,3 18,0 18,4 0 0 0 0 N 1017,0
10.08.2020 13:00:00 19,3 17,8 18,3 0 0 0 0 N 1016,9
10.08.2020 12:00:00 19,2 17,7 18,3 0 0 0 0 N 1016,7
10.08.2020 11:00:00 19,2 17,9 18,2 0 0 0 0 N 1016,9
10.08.2020 10:00:00 19,0 17,8 18,2 0 0 0 0 N 1016,8
10.08.2020 09:00:00 19,0 17,6 18,1 0 0 0 0 N 1016,9
10.08.2020 08:00:00 18,9 17,2 18,1 0 0 0 0 N 1016,8
10.08.2020 07:00:00 18,7 16,9 18,1 0 0 0 0 N 1016,8
10.08.2020 06:00:00 18,7 16,6 18,1 0 0 0 0 N 1016,8
10.08.2020 05:00:00 18,8 16,2 18,1 0 0 0 0 N 1016,8
10.08.2020 04:00:00 18,9 16,2 18,1 0 0 0 0 N 1017,1
10.08.2020 03:00:00 18,8 16,1 18,1 0 0 0 0 N 1017,4
10.08.2020 02:00:00 18,7 16,6 18,1 0 0 0 0 N 1017,8
10.08.2020 01:00:00 18,7 16,7 18,1 0 0 0 0 N 1018,2
10.08.2020 00:00:00 18,7 16,8 18,1 0 0 0 0 N 1018,4
09.08.2020 23:00:00 18,6 17,0 18,1 0 0 0 0 N 1018,5
09.08.2020 22:00:00 18,7 17,2 18,1 0 0 0 0 N 1018,4

tt = temperature
td = dewpoint
tw = water temperature
ff = wind speed
fx = gusts
dd = wind direction
ppp = reduced air pressure

Next stations